This demonstration page uses our WeatherBlox Daily Observations layout. Learn more.

Left ArrowRight Arrow

Hourly Observations for October 9, 2021

Temp ( °F °C ) Dew Point ( °F °C ) Humidity (%) Winds ( mph kmh ) Pressure ( in mb ) Visibility ( mi km ) Precip ( " mm )
12:53 am 00:53 Cloudy 61 16.1 44 6.7 54 54 SSE 6 9 30.11 1020 10 16 0.00 0.00
1:53 am 01:53 Cloudy 60 15.6 45 7.2 58 58 Calm 30.12 1020 10 16 0.00 0.00
2:53 am 02:53 Cloudy 60 15.6 47 8.3 62 62 NNE 3 6 30.14 1021 10 16 0.00 0.00
3:53 am 03:53 Cloudy 59 15 42 5.6 54 54 NNE 3 6 30.14 1021 10 16 0.00 0.00
4:53 am 04:53 Cloudy 58 14.4 43 6.1 58 58 WSW 3 6 30.15 1021 10 16 0.00 0.00
5:53 am 05:53 Cloudy 56 13.3 43 6.1 62 62 Calm 30.18 1022 10 16 0.00 0.00
6:53 am 06:53 Mostly Clear 53 11.7 43 6.1 69 69 Calm 30.19 1023 10 16 0.00 0.00
7:53 am 07:53 Sunny 51 10.6 44 6.7 77 77 Calm 30.21 1023 9 14 0.00 0.00
8:53 am 08:53 Sunny 57 13.9 43 6.1 60 60 Calm 30.22 1023 10 16 0.00 0.00
9:53 am 09:53 Sunny 61 16.1 43 6.1 52 52 Calm 30.22 1023 10 16 0.00 0.00
10:53 am 10:53 Sunny 66 18.9 43 6.1 43 43 VRB 3 6 30.21 1023 10 16 0.00 0.00
11:53 am 11:53 Sunny 68 20 40 4.4 36 36 WSW 7 11 30.19 1023 10 16 0.00 0.00
12:53 pm 12:53 Sunny 72 22.2 41 5 33 33 Calm 30.17 1022 10 16 0.00 0.00
1:53 pm 13:53 Sunny 74 23.3 38 3.3 27 27 Calm 30.14 1021 10 16 0.00 0.00
2:53 pm 14:53 Sunny 77 25 36 2.2 23 23 NE 7 11 30.11 1020 10 16 0.00 0.00
3:53 pm 15:53 Sunny 77 25 33 0.6 20 20 VRB 6 9 30.10 1019 10 16 0.00 0.00
4:53 pm 16:53 Sunny 79 26.1 30 -1.1 17 17 N 3 6 30.08 1019 10 16 0.00 0.00
5:53 pm 17:53 Sunny 78 25.6 30 -1.1 17 17 VRB 3 6 30.06 1018 10 16 0.00 0.00
6:53 pm 18:53 Clear 69 20.6 35 1.7 29 29 W 3 6 30.07 1018 10 16 0.00 0.00
7:53 pm 19:53 Clear 64 17.8 36 2.2 35 35 Calm 30.07 1018 10 16 0.00 0.00
8:53 pm 20:53 Clear 61 16.1 33 0.6 35 35 Calm 30.09 1019 10 16 0.00 0.00
9:53 pm 21:53 Clear 59 15 35 1.7 41 41 Calm 30.11 1020 10 16 0.00 0.00
10:53 pm 22:53 Clear 57 13.9 36 2.2 45 45 Calm 30.11 1020 10 16 0.00 0.00
11:53 pm 23:53 Clear 53 11.7 36 2.2 52 52 Calm 30.11 1020 10 16 0.00 0.00

Powered by AerisWeather